Roseau, MN

10:47 AM CDT on July 23, 2017 (GMT -0500)
Roseau Municipal-Billberg

Weather History for KROX - January, 2014

Change the Weather History Date:

Sunday, January 26, 2014

  Actual Average Record
Temperature  
Mean Temperature -8 °F -  
Max Temperature 0 °F 12 °F 44 °F (2006)
Min Temperature -16 °F -9 °F -41 °F (1997)
Degree Days  
Heating Degree Days 73    
Moisture  
Dew Point -12 °F    
Average Humidity 72    
Maximum Humidity 78    
Minimum Humidity 64    
Precipitation  
Precipitation 0.01 in - - ()
Sea Level Pressure  
Sea Level Pressure 29.67 in    
Wind  
Wind Speed 10 mph (NNW)    
Max Wind Speed 30 mph    
Max Gust Speed 37 mph    
Visibility 4 miles    
Events Snow    
Averages and records for this station are not official NWS values.
T = Trace of Precipitation, MM = Missing Value Source: NWS Daily Summary

Daily Weather History Graph

Daily Weather History Graph

Search for Another Location

Airport or City:

Trip Planner

Search our weather history database for the weather conditions in past years. The results will help you decide how hot, cold, wet, or windy it might be!

Date:

Astronomy

Jan. 26, 2014 Rise Set
Actual Time 8:00 AM CST 5:10 PM CST
Civil Twilight 7:25 AM CST 5:45 PM CST
Nautical Twilight 6:47 AM CST 6:23 PM CST
Astronomical Twilight 6:10 AM CST 7:01 PM CST
Moon 3:40 AM CST (1/26) 12:58 PM CST (1/26)
Length of Visible Light 10h 19m
Length of Day
9h 10m
Waning Crescent, 23% of the Moon is Illuminated
Jan 26
Waning Crescent
Jan 30
New
Feb 6
First Quarter
Feb 14
Full
Feb 22
Last Quarter

Hourly Weather History & Observations

Time (CST) Temp. Windchill Dew Point Humidity Pressure Visibility Wind Dir Wind Speed Gust Speed Precip Events Conditions
12:14 AM -0.4 °F - -7.6 °F 72% 29.50 in 5.0 mi Calm Calm - N/A Snow Light Snow
12:35 AM -0.4 °F -12.0 °F -7.6 °F 72% 29.48 in 10.0 mi East 5.8 mph - N/A Snow Light Snow
12:54 AM -0.4 °F -10.4 °F -7.6 °F 72% 29.47 in 10.0 mi East 4.6 mph - N/A Snow Light Snow
1:14 AM -0.4 °F -8.3 °F -7.6 °F 72% 29.45 in 10.0 mi East 3.5 mph - N/A Snow Light Snow
1:34 AM -0.4 °F -8.3 °F -7.6 °F 72% 29.45 in 10.0 mi SE 3.5 mph - N/A Snow Light Snow
1:54 AM -0.4 °F -8.3 °F -7.6 °F 72% 29.45 in 7.0 mi South 3.5 mph - N/A Snow Light Snow
2:14 AM -0.4 °F -8.3 °F -7.6 °F 72% 29.44 in 7.0 mi South 3.5 mph - N/A Snow Light Snow
2:34 AM -0.4 °F - -7.6 °F 72% 29.43 in 7.0 mi Calm Calm - N/A Snow Light Snow
2:54 AM -0.4 °F -8.3 °F -7.6 °F 72% 29.40 in 5.0 mi ESE 3.5 mph - N/A Snow Light Snow
3:14 AM -0.4 °F - -5.8 °F 78% 29.41 in 7.0 mi Calm Calm - N/A Snow Light Snow
3:34 AM -0.4 °F - -5.8 °F 78% 29.41 in 5.0 mi Calm Calm - N/A Snow Light Snow
3:54 AM -0.4 °F - -5.8 °F 78% 29.40 in 4.0 mi Calm Calm - N/A Snow Light Snow
4:14 AM -0.4 °F - -5.8 °F 78% 29.39 in 2.0 mi Calm Calm - N/A Snow Light Snow
4:34 AM -0.4 °F - -5.8 °F 78% 29.39 in 1.2 mi Calm Calm - N/A Snow Light Snow
4:54 AM -0.4 °F - -5.8 °F 78% 29.37 in 2.0 mi Calm Calm - N/A Snow Light Snow
5:14 AM -0.4 °F - -5.8 °F 78% 29.38 in 2.0 mi Calm Calm - 0.01 in Snow Light Snow
5:35 AM -0.4 °F - -5.8 °F 78% 29.37 in 2.0 mi Calm Calm - 0.01 in Snow Light Snow
5:54 AM -0.4 °F - -5.8 °F 78% 29.37 in 2.0 mi Calm Calm - 0.01 in Snow Light Snow
6:14 AM -0.4 °F - -5.8 °F 78% 29.37 in 4.0 mi Calm Calm - N/A Snow Light Snow
6:35 AM -0.4 °F - -7.6 °F 72% 29.36 in 5.0 mi Calm Calm - N/A Snow Light Snow
6:54 AM -0.4 °F -8.3 °F -7.6 °F 72% 29.36 in 7.0 mi NNE 3.5 mph - N/A Snow Light Snow
7:14 AM -0.4 °F -10.4 °F -7.6 °F 72% 29.36 in 5.0 mi North 4.6 mph - N/A Snow Light Snow
7:34 AM -0.4 °F -10.4 °F -7.6 °F 72% 29.37 in 7.0 mi North 4.6 mph - N/A Snow Light Snow
7:54 AM -2.2 °F -12.5 °F -7.6 °F 78% 29.37 in 7.0 mi North 4.6 mph - N/A Snow Light Snow
8:14 AM -2.2 °F -14.2 °F -7.6 °F 78% 29.38 in 5.0 mi NW 5.8 mph - N/A   Haze
8:34 AM -2.2 °F -12.5 °F -7.6 °F 78% 29.40 in 5.0 mi WNW 4.6 mph - N/A Snow Light Snow
8:54 AM -2.2 °F -15.6 °F -7.6 °F 78% 29.41 in 5.0 mi NW 6.9 mph - N/A Snow Light Snow
9:14 AM -2.2 °F -18.0 °F -7.6 °F 78% 29.41 in 4.0 mi NW 9.2 mph - N/A   Haze
9:34 AM -0.4 °F -18.4 °F -7.6 °F 72% 29.43 in 4.0 mi NW 12.7 mph 18.4 mph N/A   Haze
9:54 AM -0.4 °F -19.2 °F -7.6 °F 72% 29.44 in 3.0 mi NNW 13.8 mph - N/A   Haze
10:14 AM -0.4 °F -21.2 °F -7.6 °F 72% 29.46 in 3.0 mi NNW 17.3 mph - N/A   Haze
10:34 AM -0.4 °F -24.7 °F -7.6 °F 72% 29.47 in 0.8 mi NNW 25.3 mph 28.8 mph N/A Snow Light Snow
10:54 AM -0.4 °F -22.8 °F -7.6 °F 72% 29.50 in 0.5 mi North 20.7 mph 26.5 mph N/A Snow Light Snow
11:14 AM -0.4 °F -22.8 °F -7.6 °F 72% 29.52 in 1.0 mi NNW 20.7 mph - N/A   Haze
11:34 AM -2.2 °F -26.2 °F -9.4 °F 71% 29.54 in 1.0 mi NNW 23.0 mph - N/A   Haze
11:54 AM -2.2 °F -25.2 °F -9.4 °F 71% 29.56 in 1.0 mi North 20.7 mph 27.6 mph N/A   Haze
12:14 PM -0.4 °F -22.3 °F -7.6 °F 72% 29.57 in 0.8 mi North 19.6 mph 26.5 mph N/A   Haze
12:34 PM -2.2 °F -26.2 °F -7.6 °F 78% 29.59 in 0.5 mi NNW 23.0 mph - N/A Snow Light Snow
12:54 PM -2.2 °F -26.7 °F -9.4 °F 71% 29.61 in 0.5 mi North 24.2 mph 32.2 mph N/A Snow Light Snow
1:15 PM -0.4 °F -24.7 °F -7.6 °F 72% 29.63 in 1.0 mi NNW 25.3 mph - N/A   Haze
1:34 PM -0.4 °F -24.3 °F -7.6 °F 72% 29.65 in 1.0 mi NNW 24.2 mph - N/A   Haze
1:54 PM -0.4 °F -24.3 °F -7.6 °F 72% 29.67 in 0.8 mi NNW 24.2 mph 27.6 mph N/A   Haze
2:14 PM -2.2 °F -25.7 °F -9.4 °F 71% 29.69 in 0.5 mi NNW 21.9 mph - N/A Snow Light Snow
2:35 PM -2.2 °F -25.2 °F -9.4 °F 71% 29.72 in 0.8 mi NNW 20.7 mph - N/A   Haze
2:54 PM -2.2 °F -26.7 °F -9.4 °F 71% 29.74 in 0.5 mi NNW 24.2 mph 31.1 mph N/A Snow Light Snow
3:14 PM -2.2 °F -28.0 °F -9.4 °F 71% 29.76 in 0.5 mi NW 27.6 mph - N/A Snow Light Snow
3:35 PM -2.2 °F -28.8 °F -9.4 °F 71% 29.78 in 0.2 mi NW 29.9 mph 34.5 mph N/A Snow Snow
3:54 PM -4.0 °F -28.6 °F -11.2 °F 71% 29.81 in 0.5 mi NNW 23.0 mph 35.7 mph N/A Snow Light Snow
4:14 PM -5.8 °F -32.4 °F -13.0 °F 71% 29.83 in 0.2 mi NW 26.5 mph 35.7 mph N/A Snow Light Snow
4:34 PM -5.8 °F -32.9 °F -13.0 °F 71% 29.85 in 0.8 mi NW 27.6 mph - N/A Snow Light Snow
4:54 PM -7.6 °F -35.7 °F -14.8 °F 71% 29.87 in 0.2 mi NNW 28.8 mph 36.8 mph N/A Snow Snow
5:14 PM -9.4 °F -37.3 °F -16.6 °F 71% 29.89 in 0.2 mi NNW 26.5 mph 35.7 mph N/A Snow Snow
5:34 PM -9.4 °F -34.1 °F -16.6 °F 71% 29.92 in 2.0 mi NW 19.6 mph 29.9 mph N/A Snow Light Snow
5:54 PM -11.2 °F -39.2 °F -18.4 °F 70% 29.93 in 0.8 mi NNW 25.3 mph 33.4 mph N/A Snow Light Snow
6:14 PM -11.2 °F -39.7 °F -20.2 °F 64% 29.95 in 1.5 mi NW 26.5 mph 32.2 mph N/A   Haze
6:34 PM -13.0 °F -41.6 °F -20.2 °F 70% 29.97 in 1.5 mi NW 25.3 mph 31.1 mph N/A Snow Light Snow
6:54 PM -13.0 °F -41.1 °F -22.0 °F 64% 29.99 in 2.0 mi NNW 24.2 mph 31.1 mph N/A Snow Light Snow
7:14 PM -14.8 °F -40.5 °F -22.0 °F 70% 30.00 in 1.8 mi NW 18.4 mph 29.9 mph N/A   Haze
7:34 PM -14.8 °F -42.4 °F -22.0 °F 70% 30.01 in 2.5 mi NW 21.9 mph 26.5 mph N/A   Haze
7:54 PM -14.8 °F -41.8 °F -23.8 °F 64% 30.03 in 3.0 mi NW 20.7 mph 28.8 mph N/A   Haze
8:14 PM -14.8 °F -42.4 °F -23.8 °F 64% 30.05 in 4.0 mi NNW 21.9 mph 26.5 mph N/A   Haze
8:34 PM -14.8 °F -39.8 °F -23.8 °F 64% 30.06 in 4.0 mi NW 17.3 mph - N/A   Haze
8:54 PM -14.8 °F -42.4 °F -23.8 °F 64% 30.07 in 4.0 mi NNW 21.9 mph 25.3 mph N/A   Haze
9:15 PM -14.8 °F -39.8 °F -23.8 °F 64% 30.08 in 7.0 mi NNW 17.3 mph - N/A   Clear
9:34 PM -14.8 °F -40.5 °F -23.8 °F 64% 30.09 in 5.0 mi NNW 18.4 mph 25.3 mph N/A   Haze
9:54 PM -14.8 °F -42.4 °F -23.8 °F 64% 30.10 in 5.0 mi NNW 21.9 mph 26.5 mph N/A   Haze
10:14 PM -14.8 °F -39.8 °F -23.8 °F 64% 30.11 in 7.0 mi NW 17.3 mph - N/A   Clear
10:34 PM -14.8 °F -41.2 °F -23.8 °F 64% 30.11 in 7.0 mi NW 19.6 mph 23.0 mph N/A   Clear
10:54 PM -16.6 °F -42.9 °F -23.8 °F 70% 30.12 in 7.0 mi NW 18.4 mph 24.2 mph N/A   Clear
11:15 PM -16.6 °F -42.9 °F -23.8 °F 70% 30.13 in 7.0 mi NW 18.4 mph - N/A   Clear
11:34 PM -16.6 °F -40.6 °F -25.6 °F 64% 30.14 in 7.0 mi NW 15.0 mph - N/A   Clear
11:54 PM -16.6 °F -42.1 °F -25.6 °F 64% 30.14 in 5.0 mi NW 17.3 mph 21.9 mph N/A   Haze